Wind_Speed
13 13 12 11 12 13 13 13 14 14 13 13 13 14 15 14 14 15 15 15 15 14 14 14 13 13 13 13 14 14 13 12 12 13 15 15 14 12 12 11 11 11 11 12 13 14 16 18 19 21 22 23 23 23 22 22 22 22 21 21 22 22 22 22 22 22 22 21 21 20 20 20 20 20 20 20 20 20 20 20 20 19 19 19 19
13 13 13 12 12 13 13 12 11 13 13 13 13 13 13 13 12 12 13 14 15 14 14 14 13 12 13 13 13 13 13 12 12 14 15 16 16 14 13 12 12 12 13 14 15 17 18 20 21 22 22 22 22 22 22 22 22 22 22 22 22 22 23 22 22 22 21 21 20 20 20 20 20 20 20 20 20 20 20 20 20 20 20 20 20
14 13 13 13 13 13 14 12 11 12 12 12 12 13 13 13 12 11 12 14 14 14 14 14 12 12 12 12 13 12 11 11 13 14 15 16 16 15 14 13 13 13 15 16 17 18 19 20 21 21 21 21 21 21 21 21 22 22 22 22 22 23 23 22 22 21 21 20 20 20 20 20 20 20 20 20 20 19 20 20 20 20 20 20 20
12 12 11 12 13 13 13 13 11 11 12 12 11 12 13 14 13 12 12 14 14 13 13 13 12 11 12 12 12 12 10 11 14 15 15 15 15 15 14 14 14 15 17 17 18 19 19 20 20 20 20 21 21 21 22 22 22 22 22 23 23 23 22 22 21 20 20 20 20 20 19 19 19 19 19 19 19 19 19 19 19 19 19 19 19
11 10 9 10 12 12 12 12 11 11 11 11 11 12 12 12 13 12 12 13 14 14 13 12 11 11 11 11 11 11 10 11 13 13 13 14 14 14 15 15 16 16 18 18 19 19 19 19 19 20 20 20 21 21 22 22 22 23 23 23 23 22 22 21 20 20 20 20 19 19 18 18 18 18 18 17 18 18 18 18 18 18 18 18 18
9 9 8 9 11 11 11 11 10 10 10 10 10 11 11 11 12 12 11 12 14 13 12 12 11 11 11 10 10 10 9 10 11 11 12 13 13 13 14 15 16 17 18 18 18 18 18 19 19 19 20 20 21 22 22 22 23 23 22 22 22 21 21 20 20 19 19 18 18 18 17 17 16 16 16 16 17 17 17 17 17 17 17 17 17
9 8 8 8 10 10 10 10 10 10 10 9 9 10 11 11 11 11 12 13 13 12 12 11 10 11 10 10 10 9 9 9 9 10 11 11 11 12 13 15 16 17 17 17 18 18 18 18 19 19 20 21 22 22 23 22 22 22 22 21 21 21 20 20 19 18 18 17 17 16 15 15 15 15 15 15 15 16 16 17 17 17 17 17 17
9 8 8 8 8 9 10 10 9 9 10 9 9 10 11 11 11 11 11 13 13 12 11 11 10 10 10 10 9 9 8 8 8 9 10 9 10 11 12 14 16 16 17 17 17 17 17 18 18 19 20 21 22 22 22 22 21 21 21 21 21 20 20 19 18 17 16 16 15 15 14 14 14 14 14 15 15 15 17 17 17 17 18 19 19
8 9 8 8 8 8 9 9 9 9 9 9 9 9 10 11 11 11 11 11 13 12 10 10 10 9 9 10 9 8 8 7 7 9 9 9 9 11 12 13 15 16 15 16 17 17 17 17 18 19 20 21 21 21 21 21 22 22 22 21 21 20 19 18 17 16 16 15 15 14 14 14 14 14 14 15 15 15 17 16 17 18 19 20 20
8 8 8 8 8 8 8 8 9 9 8 8 8 8 9 10 11 11 10 9 11 11 10 9 9 9 10 10 9 8 8 7 7 8 9 10 10 12 13 13 14 15 15 15 16 16 17 17 19 20 20 19 20 20 21 22 22 22 23 22 22 21 20 19 17 16 16 15 15 15 15 15 15 15 15 15 15 15 16 17 17 18 19 20 21
8 8 8 7 7 8 8 8 8 8 8 7 8 8 8 9 10 10 9 9 9 10 10 8 9 10 10 10 9 7 7 7 7 8 9 11 12 13 13 14 13 14 14 14 15 16 17 18 19 19 18 18 19 20 21 22 22 23 23 23 22 21 21 20 18 17 16 16 16 16 16 16 15 15 15 16 15 16 16 17 18 19 20 21 22
7 8 8 7 7 7 7 7 7 7 7 6 7 8 8 9 10 9 9 9 9 9 9 9 9 10 9 9 9 7 7 7 7 9 10 12 13 12 13 14 12 12 12 13 14 15 17 18 17 17 17 18 19 20 21 22 23 24 24 23 23 22 22 22 21 19 18 17 18 18 18 18 17 16 16 16 16 16 17 18 19 20 21 22 23
7 7 7 7 6 6 6 6 7 7 7 6 6 7 7 9 9 9 9 9 8 8 9 9 9 9 8 8 8 7 6 7 8 11 11 12 13 13 13 13 12 11 11 12 14 14 16 18 16 16 18 18 18 19 20 22 23 24 24 24 23 24 24 24 23 22 21 19 19 19 19 20 20 19 18 17 17 18 18 19 21 22 22 24 25
6 6 6 6 6 6 5 5 6 6 6 6 6 7 7 8 9 9 9 9 8 7 8 8 7 8 8 7 8 7 6 6 9 12 12 12 13 13 13 13 11 11 10 11 12 13 15 17 17 17 18 16 17 18 19 21 22 23 23 24 25 25 26 26 26 25 24 23 22 21 21 21 21 21 20 20 19 20 20 21 22 22 24 25 27
6 5 5 6 6 6 5 5 5 6 6 6 6 7 7 8 8 8 8 8 8 7 7 7 6 7 7 6 7 8 7 7 8 11 11 10 12 13 11 12 10 9 9 9 11 13 15 17 16 16 16 15 16 17 18 19 21 22 23 24 25 26 27 27 27 27 27 27 26 25 24 23 23 23 22 22 22 22 22 22 23 23 24 26 27
5 5 5 6 6 6 5 5 5 6 6 7 7 8 8 8 8 8 8 8 8 8 7 6 6 6 6 6 6 7 8 8 10 11 10 7 10 11 9 10 9 7 6 7 11 13 14 14 14 15 15 14 15 16 17 18 19 21 22 23 25 26 27 27 27 28 29 29 29 28 28 27 26 25 25 24 24 24 24 24 24 24 25 26 27
5 5 5 5 5 5 5 5 5 5 6 7 8 8 8 7 7 8 8 7 7 8 7 6 7 6 6 6 5 6 6 7 9 10 11 10 7 6 6 9 9 7 5 6 9 11 12 13 14 14 14 13 14 15 16 17 17 19 21 22 24 26 27 27 28 28 29 30 31 31 31 31 30 29 27 26 26 25 25 25 25 25 25 26 27
6 5 5 5 5 5 5 5 5 6 7 8 8 8 8 7 6 7 7 7 8 8 8 8 7 6 6 6 5 5 5 6 7 9 11 11 7 4 4 8 8 6 5 5 7 10 11 12 12 12 13 14 14 14 14 16 17 18 20 22 24 25 26 27 27 28 29 30 31 32 33 33 33 32 30 29 27 26 26 25 25 25 25 25 26
6 6 5 6 5 5 5 5 5 7 7 8 7 7 7 7 7 7 7 7 8 8 8 8 8 6 6 6 5 6 6 6 6 7 9 10 10 7 5 4 7 6 5 5 6 9 10 10 10 11 13 15 14 13 14 16 17 17 19 22 24 24 24 25 26 27 28 29 31 32 34 34 34 34 33 31 29 27 27 26 26 25 25 25 26
6 6 6 6 6 5 5 6 6 6 7 8 6 6 6 6 7 7 7 8 8 8 8 8 8 7 6 5 5 6 7 7 7 6 9 10 10 8 3 4 6 5 6 5 3 6 7 8 10 11 13 15 14 13 14 14 14 16 19 21 22 22 22 22 24 26 27 28 30 31 33 34 35 35 35 33 31 30 28 27 26 26 25 26 26
6 6 6 7 6 5 5 6 6 6 7 8 7 6 7 6 6 7 7 8 8 8 8 8 7 6 6 6 5 6 7 9 9 7 8 10 10 7 4 5 5 5 5 4 3 5 6 7 9 10 12 14 13 14 14 14 15 17 19 20 21 21 20 20 22 24 26 27 29 30 31 33 34 35 35 35 35 33 32 30 29 27 27 26 27
7 7 7 7 7 6 6 6 6 6 6 6 7 7 7 6 6 7 7 8 8 8 8 7 6 6 6 6 6 6 7 8 9 9 8 8 8 7 4 3 5 6 4 2 3 3 5 6 8 9 11 13 14 14 15 16 17 17 18 19 19 18 17 18 20 22 23 25 27 28 29 30 32 33 35 36 36 36 35 34 32 31 29 28 28
8 7 7 7 7 7 6 5 5 5 6 6 6 6 7 7 7 7 8 7 8 8 7 6 6 6 6 6 6 7 9 8 8 9 9 7 8 8 7 6 6 7 5 3 2 1 3 3 6 9 10 11 13 14 15 16 16 16 17 18 16 15 15 17 19 21 21 23 25 26 27 28 29 31 33 34 36 36 36 36 35 34 32 30 28
8 7 8 7 7 6 6 5 5 5 6 6 6 5 6 7 8 8 8 7 7 7 7 7 7 7 7 7 7 7 9 9 8 9 9 8 7 7 8 8 6 6 6 4 3 1 1 1 4 7 8 9 11 12 14 16 16 16 16 16 15 15 15 16 18 19 20 21 23 24 25 26 27 29 30 32 34 35 36 36 36 35 33 31 29
8 8 8 7 7 6 6 5 5 5 5 5 6 6 6 6 8 8 8 9 8 8 8 8 8 7 7 7 8 8 8 8 9 9 9 9 8 6 6 9 9 8 7 6 4 3 2 1 3 5 5 7 8 10 13 15 16 16 15 16 15 15 16 16 17 18 19 20 21 22 23 25 26 27 28 30 31 33 34 35 36 36 35 33 31
9 8 8 7 7 6 5 5 4 4 5 5 5 6 6 6 7 8 8 9 8 8 8 8 8 7 7 7 8 8 8 8 9 10 9 9 10 8 6 8 9 9 9 8 6 4 3 3 2 2 3 5 7 9 11 14 14 13 13 14 14 15 17 17 18 19 19 20 20 20 21 23 24 25 26 27 29 30 32 33 35 35 36 35 34
10 9 8 7 7 6 6 5 5 4 4 4 4 5 6 6 6 7 8 8 7 8 8 8 7 8 8 8 8 8 8 9 10 10 9 9 10 9 7 8 9 9 9 9 8 6 4 4 4 2 2 4 5 7 10 12 12 11 12 13 14 16 17 18 19 20 20 20 20 20 20 21 23 24 24 25 27 28 29 31 33 34 36 36 36
10 10 9 8 7 7 7 6 6 5 5 5 5 5 5 6 6 6 8 9 8 8 8 8 7 7 8 8 8 8 9 9 10 10 9 8 10 10 9 9 10 9 8 9 9 8 6 6 6 3 2 3 4 6 8 9 10 11 13 14 14 16 17 19 20 20 21 21 21 20 20 20 21 22 23 24 25 26 27 28 30 32 34 36 36
10 10 9 8 7 7 7 7 7 6 5 6 6 6 6 6 6 7 8 8 9 9 8 8 8 7 7 8 8 8 8 9 9 9 9 9 10 11 10 10 12 11 9 8 9 9 8 8 7 5 3 4 5 6 7 8 10 12 13 14 15 16 17 18 19 20 20 21 21 21 21 21 21 22 23 23 23 24 25 26 28 29 32 34 35
11 10 10 9 8 8 8 8 7 7 6 6 7 6 6 6 6 7 8 8 8 9 8 9 8 7 7 7 8 8 8 9 9 9 9 10 11 10 10 11 13 14 12 10 10 10 9 8 7 6 4 5 5 7 8 8 9 11 13 14 15 15 16 17 18 19 20 21 21 22 22 21 22 22 23 23 23 23 24 25 26 27 29 31 33
13 11 11 10 9 9 8 8 7 7 6 6 7 6 6 6 6 7 7 7 7 8 8 8 8 8 8 7 7 7 7 8 9 9 9 10 10 10 9 11 14 15 15 13 12 11 10 9 9 7 7 7 6 7 9 10 10 11 13 14 15 15 15 16 17 18 20 21 22 22 22 22 22 22 23 23 23 23 23 24 25 26 27 29 31
14 13 11 10 9 9 9 9 8 7 7 7 7 7 7 6 6 7 7 8 7 7 8 8 8 8 8 8 8 7 8 8 9 9 9 9 10 10 10 11 13 15 16 16 15 14 13 12 11 10 10 10 10 9 10 12 12 12 14 16 17 18 17 17 17 18 20 21 22 22 22 22 22 23 23 24 23 23 23 23 24 25 26 26 28
15 14 13 12 10 10 10 10 9 8 8 7 7 7 7 7 7 7 7 7 8 7 7 8 8 8 8 8 8 8 8 8 8 8 9 9 10 10 11 12 13 14 16 17 17 16 16 15 14 13 14 13 13 13 13 13 14 14 15 17 19 21 21 20 19 19 20 21 21 21 22 22 22 23 24 24 24 24 23 23 23 24 24 25 26
16 15 14 14 13 11 11 10 10 9 9 9 8 8 7 7 7 7 7 8 8 8 8 8 8 7 7 8 8 8 9 8 8 8 9 9 10 11 12 13 13 14 14 16 16 17 17 17 16 16 16 16 15 15 16 16 16 16 17 18 19 21 23 24 24 22 22 21 21 21 21 22 22 23 23 23 24 24 24 23 23 23 23 24 24
18 17 16 15 15 14 13 12 11 11 10 10 10 9 8 8 8 8 9 9 9 9 9 9 9 8 7 8 8 8 8 9 9 9 9 9 10 10 11 12 13 13 14 15 16 17 17 17 18 18 18 18 18 18 18 18 19 19 19 20 20 21 23 25 26 25 24 23 21 21 21 21 21 22 22 21 23 24 24 24 24 24 23 23 23
19 19 18 17 16 16 15 14 13 12 12 11 11 10 9 9 9 9 9 9 10 10 10 10 10 9 8 8 8 8 8 9 9 9 9 9 9 10 10 11 12 13 15 15 16 16 17 17 18 19 20 20 20 20 21 21 21 22 22 23 23 23 23 24 26 26 25 24 23 21 20 20 21 21 21 20 21 23 24 24 24 24 23 23 23
20 20 20 19 18 17 16 15 14 13 13 12 11 11 10 10 10 10 10 10 10 10 11 10 10 10 10 10 9 9 9 9 9 9 9 9 9 10 10 11 11 12 14 15 16 17 18 19 19 20 21 22 22 22 23 23 24 24 25 26 26 26 25 25 26 26 25 25 24 22 21 21 20 20 20 20 20 20 22 23 24 24 23 23 22
20 21 20 20 20 19 18 17 16 15 15 14 14 13 12 12 12 11 11 11 11 11 11 11 11 11 10 10 10 10 10 10 10 10 10 10 10 10 10 10 11 12 13 14 15 16 17 18 19 20 21 21 22 22 23 24 25 25 25 25 26 26 26 26 26 27 27 26 24 23 22 21 20 20 20 20 19 18 20 22 23 23 23 22 22
20 21 20 20 20 19 19 18 18 18 17 17 17 16 15 14 14 13 13 12 12 12 12 12 12 12 12 12 11 11 11 11 11 11 11 11 11 11 11 11 12 12 13 14 14 15 16 17 17 18 19 20 21 21 22 23 24 24 25 25 25 25 25 25 25 26 27 27 26 25 23 23 22 22 21 20 19 19 19 21 22 22 22 21 21
20 20 20 20 20 20 20 19 20 20 20 20 20 19 18 17 17 16 16 15 15 14 14 13 13 13 13 13 13 13 13 13 13 13 13 13 13 13 13 13 13 14 14 15 16 16 16 17 17 18 19 19 20 20 21 22 23 23 24 25 25 24 24 24 24 25 25 26 28 28 27 26 25 24 23 22 21 20 19 20 21 21 21 20 20
19 19 20 21 21 21 20 20 21 22 22 22 22 21 20 20 20 19 18 18 17 17 17 16 16 16 15 15 14 14 14 14 14 14 14 14 14 14 14 15 15 15 15 16 17 17 18 18 18 18 20 20 20 21 21 22 23 24 24 25 25 24 24 24 24 24 24 25 26 27 28 28 28 27 25 23 22 21 20 19 19 18 18 19 19
18 18 19 21 22 22 21 20 21 22 23 24 24 23 22 22 22 21 21 20 20 20 20 19 19 18 18 17 17 16 16 16 15 14 14 14 15 15 15 16 16 16 17 17 17 18 19 19 19 20 20 21 21 21 22 22 23 24 24 25 26 26 25 25 23 22 22 23 24 23 24 25 27 28 27 25 23 21 19 17 16 16 16 17 18
19 19 20 21 22 22 22 21 21 22 24 24 25 24 23 23 23 23 23 23 22 22 22 22 21 21 20 20 19 19 19 19 18 17 16 15 16 17 17 18 18 18 18 18 18 19 20 20 21 21 22 22 21 22 22 22 22 23 24 25 26 27 27 27 26 22 20 22 24 22 20 21 23 25 25 26 25 21 18 16 15 16 16 17 17
23 22 21 21 21 21 21 22 22 21 22 22 24 24 24 23 24 24 25 25 25 24 24 24 23 23 22 22 21 21 21 21 21 21 20 18 18 18 19 19 20 20 20 19 19 19 20 21 22 22 22 22 22 22 22 23 23 24 25 25 26 27 28 28 28 25 22 22 24 24 22 21 22 23 23 24 24 21 18 16 16 17 17 17 17
25 25 25 23 23 22 22 22 22 21 21 21 22 23 23 22 21 23 24 25 26 27 26 26 25 25 24 23 23 23 23 23 23 23 23 21 19 19 20 21 22 22 22 21 21 21 21 23 24 23 22 23 24 23 23 24 26 26 27 26 26 27 28 29 29 27 24 23 24 26 23 21 23 24 23 23 22 19 17 17 17 18 18 17 17
28 28 28 27 25 25 25 24 23 22 21 21 22 23 23 21 19 20 21 24 26 27 28 28 27 27 26 26 26 25 24 24 24 25 25 24 22 20 19 21 22 23 23 24 23 23 23 23 24 24 23 23 25 25 24 26 28 29 29 29 28 28 29 29 29 27 26 24 25 28 26 23 23 23 22 23 22 19 18 18 18 18 18 18 18
31 30 30 30 28 27 27 27 28 27 24 22 22 24 23 22 20 20 20 22 24 26 27 28 28 28 28 27 27 26 25 24 24 25 25 26 26 24 22 21 21 23 24 25 25 25 25 25 25 25 24 23 25 25 25 26 28 29 30 31 31 30 30 30 29 28 26 25 25 27 27 25 24 22 21 23 24 22 20 18 17 18 19 18 18
33 33 33 32 31 30 29 29 31 31 28 24 24 25 24 23 22 21 21 21 23 25 26 27 27 28 27 27 27 26 25 24 23 23 24 25 26 27 27 25 23 23 24 24 24 25 25 26 26 26 25 24 25 26 26 27 28 28 30 32 32 31 30 30 29 26 25 24 23 25 27 27 25 24 23 24 25 24 21 18 17 17 18 18 19
34 34 33 32 31 31 31 31 31 31 30 27 26 26 26 25 25 24 22 22 22 24 25 26 27 27 27 26 26 26 25 24 23 23 23 24 25 26 27 27 27 27 25 24 24 24 24 24 25 25 25 25 25 26 27 27 27 28 30 31 31 30 30 31 29 26 25 24 22 23 26 26 25 25 25 26 25 24 22 19 17 17 17 18 19
35 34 32 31 29 29 30 31 31 30 29 29 29 28 28 28 29 28 26 25 24 24 25 26 27 27 27 26 26 26 26 24 24 23 24 24 25 26 26 27 29 29 27 26 26 26 25 26 25 25 25 26 26 27 27 27 27 28 30 30 28 28 29 29 28 27 26 23 20 21 24 24 23 23 24 25 26 25 24 20 18 18 17 17 17
34 34 32 32 31 29 29 30 30 30 29 29 29 30 30 30 30 31 31 31 29 27 26 27 27 28 28 27 27 27 26 25 24 25 25 26 26 26 26 28 29 29 28 27 28 27 28 28 28 28 27 27 27 27 27 27 26 27 28 27 25 25 25 25 24 25 25 22 19 20 23 24 23 22 21 22 24 25 24 22 20 18 17 16 16
Wind_Direction
104 106 106 110 112 110 112 112 110 108 105 104 104 108 107 107 109 110 108 106 104 100 97 94 86 81 77 73 70 66 66 67 65 61 54 51 55 61 66 70 73 74 74 74 76 79 83 86 89 90 90 90 88 86 82 78 74 70 66 62 59 57 54 52 51 49 49 48 46 44 42 40 38 36 33 31 28 26 24 22 20 18 17 16 15
103 102 107 114 117 119 118 114 112 112 111 109 108 108 107 109 111 112 112 111 107 102 97 92 86 82 77 73 70 67 68 67 66 63 58 55 57 62 67 71 74 77 78 81 84 87 90 92 93 93 92 89 85 80 75 71 67 64 61 58 56 54 53 51 50 48 47 46 44 42 39 36 34 32 29 27 25 23 22 20 19 18 16 15 14
109 108 115 117 118 120 119 119 115 112 112 111 111 111 111 111 108 109 114 112 107 103 97 91 87 83 78 74 71 68 67 67 66 64 61 59 58 61 69 75 78 82 85 88 91 93 95 96 95 93 89 84 79 74 69 66 63 60 58 56 54 53 51 49 47 45 44 42 40 37 35 32 30 27 26 24 22 21 20 19 19 18 16 14 13
115 111 112 110 109 110 112 116 117 114 114 116 117 115 115 115 111 112 112 109 107 103 98 94 90 84 79 74 70 68 63 61 60 58 59 62 62 64 72 80 84 88 92 94 97 98 98 96 94 89 83 77 72 68 65 62 59 57 56 54 53 51 49 47 45 42 41 38 36 34 31 29 26 25 23 21 20 19 19 19 19 18 16 14 12
111 107 107 105 104 105 107 113 117 118 118 122 122 118 117 116 117 115 112 111 109 104 99 94 90 86 81 76 72 68 60 58 58 58 61 64 66 68 75 84 90 94 97 100 101 100 99 95 89 82 76 71 67 64 61 58 57 55 54 52 51 49 47 44 42 39 38 35 33 31 28 26 24 23 21 20 19 19 21 21 20 19 17 16 14
114 116 119 117 112 111 112 113 116 118 119 121 121 121 122 122 121 118 116 113 105 99 97 94 91 87 85 83 80 74 67 62 60 60 62 64 68 72 80 90 96 100 102 104 104 101 97 90 83 77 72 68 65 61 59 57 56 55 53 51 49 46 43 40 38 36 34 32 30 28 26 24 22 21 21 21 21 21 23 22 22 23 22 20 19
123 125 128 126 121 121 119 116 118 119 121 120 122 128 127 126 123 119 116 110 104 100 98 97 94 90 88 86 84 80 73 66 64 64 65 68 75 81 89 98 102 105 108 107 104 99 92 86 79 74 70 66 63 60 59 58 56 54 52 49 46 43 40 37 35 34 32 30 28 26 25 23 21 22 22 23 24 25 25 25 26 27 25 24 22
127 132 129 127 125 125 123 120 119 120 124 122 124 129 127 125 124 120 115 111 109 107 103 101 97 93 93 88 84 82 73 65 68 71 72 76 82 88 97 106 109 109 111 108 103 96 88 82 76 71 67 65 63 60 59 58 56 53 50 47 43 41 39 36 34 32 30 29 27 26 25 24 23 24 25 25 27 27 26 26 27 26 23 23 21
134 135 129 128 125 122 122 122 123 123 126 123 124 127 125 126 126 121 116 116 115 110 107 107 101 97 94 89 85 82 76 68 64 69 76 78 84 98 105 110 112 110 110 107 100 94 86 79 72 68 65 64 63 61 59 57 54 51 48 45 42 40 38 35 34 31 31 30 28 28 27 26 26 27 27 26 27 25 23 22 22 21 19 18 16
137 130 121 122 123 123 125 126 127 128 127 124 125 124 122 127 129 125 120 120 118 112 109 105 101 100 96 91 86 81 79 71 66 73 84 88 93 106 111 111 112 110 109 104 96 91 84 76 70 66 64 64 63 61 59 57 53 50 47 44 42 40 38 36 34 33 33 33 31 29 27 27 26 26 26 23 23 20 17 16 15 14 13 13 12
134 127 122 125 127 128 130 129 130 133 134 132 129 124 125 129 127 125 123 122 120 115 111 104 101 102 99 97 92 84 79 72 75 83 93 99 100 108 114 112 110 109 106 99 93 89 81 74 69 67 65 63 62 61 60 56 53 50 47 46 44 43 41 39 38 36 36 35 33 30 27 25 23 22 21 19 17 14 11 10 9 9 8 8 7
133 129 128 132 133 129 130 132 133 136 141 140 130 125 131 132 130 131 128 124 121 117 113 110 109 107 103 99 95 91 84 80 86 90 96 104 104 110 116 113 110 108 106 101 93 85 79 75 71 69 66 62 61 61 60 57 54 52 49 49 48 46 45 43 42 39 38 36 34 32 28 25 21 18 16 13 11 8 5 5 5 5 5 5 3
142 140 137 136 135 132 135 137 140 143 145 145 133 127 133 136 138 139 136 129 124 124 121 117 116 113 106 99 95 91 84 88 95 94 99 109 110 115 119 116 112 111 107 100 90 81 78 77 73 69 63 60 61 63 61 58 55 53 51 50 49 48 46 44 43 41 39 36 34 32 29 26 23 18 15 10 7 4 2 2 2 3 3 2 1
149 150 144 142 142 144 150 146 148 149 146 145 138 136 140 140 143 144 140 135 131 134 129 123 122 118 112 103 97 92 85 95 108 106 106 112 114 116 121 117 111 111 106 95 89 82 78 74 68 63 59 58 63 64 62 59 58 55 52 50 48 46 45 43 42 41 39 37 34 31 28 25 23 19 17 12 8 5 2 0 360 1 2 1 2
149 149 144 147 146 149 159 157 154 153 150 151 144 147 152 145 146 152 149 143 139 141 136 129 129 125 118 108 98 92 91 100 113 113 107 112 118 115 119 117 108 108 106 99 91 80 73 70 64 60 57 59 66 67 64 62 59 55 50 48 46 44 42 39 39 39 38 37 34 32 28 25 22 19 17 15 12 9 5 3 2 2 1 1 3
149 146 146 149 145 146 155 156 154 154 159 159 148 151 156 149 153 160 155 151 149 146 145 142 139 134 123 113 104 95 100 111 113 115 106 100 112 109 112 119 112 112 109 95 88 78 73 71 64 60 57 59 65 66 65 62 58 54 49 47 45 43 40 36 36 36 36 36 34 33 31 28 25 21 18 16 14 11 8 6 4 4 3 3 5
151 150 151 148 143 145 149 150 152 152 159 161 153 151 155 156 162 163 157 155 156 153 152 150 145 141 129 119 111 95 102 114 113 122 111 93 94 87 104 130 121 116 117 88 82 79 75 70 63 60 58 59 64 63 62 61 58 54 49 46 44 42 39 35 32 33 34 34 34 33 32 30 27 24 21 17 14 11 9 7 6 6 5 5 5
154 155 154 148 144 147 147 146 149 153 161 165 162 158 158 167 169 166 167 163 163 160 155 153 152 150 137 124 118 105 106 116 124 140 122 113 133 103 90 138 133 129 135 106 86 78 70 68 64 62 61 59 60 59 58 56 52 49 46 44 41 38 36 34 31 30 31 32 33 33 32 31 29 26 22 19 15 13 11 9 9 8 7 6 5
158 159 158 157 151 148 144 140 146 157 161 158 162 165 167 175 169 166 173 168 166 163 156 156 157 158 147 131 128 122 118 121 136 146 127 130 146 113 75 140 146 140 116 91 83 73 64 63 63 63 62 57 53 54 57 53 49 47 44 42 38 33 31 32 30 28 29 30 31 32 32 31 30 28 25 21 18 15 13 11 10 9 7 6 5
162 160 161 162 156 155 150 145 154 164 160 151 155 168 177 180 163 161 173 169 166 162 158 162 161 160 152 138 137 135 132 129 126 132 131 134 132 117 128 163 154 153 119 97 95 78 65 60 60 60 59 53 48 52 55 52 49 48 44 40 36 30 26 28 31 28 27 28 30 30 30 30 29 29 27 24 22 20 17 13 11 9 7 5 5
169 163 164 165 161 164 162 159 166 169 164 157 154 161 172 173 155 153 166 167 166 164 163 165 162 161 154 142 140 141 147 143 133 135 137 136 133 127 156 169 162 174 146 120 116 85 69 66 63 57 53 50 48 51 52 50 47 44 41 38 33 25 19 24 30 29 26 26 29 30 30 29 27 27 26 24 23 22 20 17 14 11 8 6 6
176 171 167 166 165 169 171 170 172 168 168 165 158 157 160 161 158 156 160 164 166 166 164 166 166 166 157 143 138 140 153 158 150 148 143 145 149 129 125 189 176 168 161 127 115 71 56 69 67 55 46 44 46 50 49 46 44 40 38 36 29 19 15 21 28 29 25 24 28 30 29 28 27 25 24 22 22 21 20 19 17 15 12 9 7
177 173 168 167 167 172 170 169 171 166 170 171 164 163 163 168 172 165 163 164 166 166 165 170 173 169 156 140 138 145 153 161 159 153 146 154 168 151 152 193 184 164 171 177 175 67 43 57 59 51 41 36 41 47 48 46 44 39 36 34 25 13 13 20 26 27 24 22 25 27 28 28 26 25 23 21 20 19 18 17 17 17 14 11 8
175 173 171 166 168 175 167 169 179 171 172 173 163 168 175 178 177 170 171 170 169 172 170 172 172 164 154 144 147 154 157 161 158 153 151 158 183 185 172 181 183 175 184 192 200 213 14 24 45 42 33 33 35 40 47 47 45 39 34 31 22 12 13 18 24 24 21 20 20 22 24 26 25 24 22 20 19 18 17 16 16 16 16 13 10
180 180 178 170 170 178 169 169 179 170 172 173 162 169 180 181 178 174 176 176 175 179 176 175 171 159 154 155 158 162 160 163 162 162 165 169 187 202 186 186 186 179 186 200 216 235 256 297 19 21 18 31 31 30 39 43 42 38 32 28 19 13 14 16 21 21 17 17 16 16 18 21 23 23 22 20 18 17 16 15 15 15 15 15 12
190 187 186 179 173 176 171 167 173 174 176 171 163 170 175 179 184 178 176 177 178 180 177 178 173 160 164 171 169 169 167 167 171 172 177 186 193 189 186 203 200 186 188 197 214 229 241 273 304 349 356 14 26 25 29 32 33 31 31 26 16 14 15 14 17 17 13 12 12 10 12 14 17 20 19 18 17 16 15 14 13 13 14 14 13
196 193 190 188 181 175 173 169 170 180 182 176 173 170 165 173 183 180 174 175 179 180 176 180 176 165 175 182 174 175 176 173 177 181 185 194 194 185 185 207 212 205 201 201 213 224 229 257 264 237 299 342 15 24 23 22 18 18 24 23 15 13 13 12 14 12 8 6 5 5 6 7 11 14 15 15 15 15 14 13 12 11 11 12 12
201 197 196 197 192 181 179 178 174 180 184 186 194 186 173 175 179 179 175 172 178 180 173 179 185 174 181 186 176 180 184 179 184 194 194 192 192 191 193 203 212 219 219 214 219 229 234 249 258 254 285 329 356 11 17 12 4 7 13 12 12 13 9 10 11 6 2 1 359 360 1 2 4 7 9 10 11 12 12 12 11 10 9 9 10
207 203 202 205 206 195 189 187 181 183 187 189 197 198 187 181 178 181 179 169 173 178 171 177 186 179 183 189 183 187 191 187 193 200 201 200 202 203 200 204 212 219 224 223 224 232 239 249 258 261 286 314 327 347 358 359 357 359 360 359 4 6 5 7 5 359 357 357 354 355 357 358 358 360 2 3 6 8 9 10 10 9 8 6 6
211 210 209 209 213 212 205 199 187 185 191 193 198 200 190 186 185 185 183 175 173 177 176 179 183 178 183 194 195 194 194 194 199 204 209 211 211 211 210 211 215 218 224 228 227 233 243 255 263 264 267 282 308 331 335 341 348 346 345 347 350 353 357 359 357 353 352 352 351 351 352 354 354 354 356 357 360 3 4 6 7 7 7 5 4
215 215 216 213 215 219 219 216 201 190 193 197 202 203 193 190 193 189 189 185 177 180 186 186 183 182 185 195 202 204 201 201 204 207 212 216 215 219 222 220 217 218 224 229 231 236 243 251 264 275 280 285 304 320 319 323 329 330 332 334 334 339 346 348 348 347 347 347 347 347 347 349 349 350 351 352 354 357 359 1 2 3 4 4 3
220 220 221 218 217 222 226 227 219 205 200 201 204 207 202 199 202 197 195 193 185 185 191 192 191 191 192 197 205 211 211 209 210 211 214 218 222 227 232 231 227 225 227 230 233 237 242 249 259 271 278 286 296 301 305 310 315 319 324 325 326 330 333 336 339 341 341 341 341 342 343 344 344 345 346 347 349 351 354 355 357 358 360 1 2
225 225 225 224 221 224 226 227 228 224 217 212 210 211 209 207 212 212 205 200 198 198 197 200 202 198 196 202 209 214 216 215 216 219 220 222 225 229 232 235 236 233 232 233 236 239 244 251 257 263 270 278 285 292 299 305 309 313 317 320 322 323 324 327 330 333 335 335 335 336 338 340 340 340 340 341 343 346 348 350 352 353 354 356 359
228 229 229 229 227 227 228 227 230 233 232 228 223 219 215 213 218 223 221 214 211 211 209 210 214 208 202 206 211 213 214 216 218 222 224 225 227 231 234 237 241 241 239 240 244 247 249 252 256 261 267 272 278 286 293 298 302 307 309 312 313 315 318 320 321 326 328 328 330 331 332 335 336 335 334 336 338 340 342 345 347 347 349 351 355
230 230 231 233 232 231 231 231 232 235 238 239 236 228 221 220 223 226 229 229 225 222 221 220 221 219 214 212 213 213 212 212 216 221 225 229 233 237 239 242 246 248 249 249 251 254 254 256 260 263 267 273 278 282 288 293 297 300 302 304 306 309 312 313 315 320 323 323 325 326 326 329 330 328 329 331 334 335 335 339 342 343 344 345 348
234 233 232 234 235 234 233 234 235 238 241 244 245 240 230 225 228 229 231 234 234 232 231 231 230 229 227 224 221 220 219 218 220 224 228 233 238 241 242 246 250 252 255 256 257 260 261 263 266 270 273 276 280 284 288 292 294 297 300 301 303 305 307 309 311 315 318 319 321 322 322 323 322 323 324 326 329 330 330 333 337 338 338 339 341
237 236 234 236 238 237 237 238 238 240 244 246 247 246 242 237 234 233 233 237 239 238 236 237 238 237 237 236 234 231 231 232 232 233 235 238 243 246 248 251 254 257 261 263 263 264 265 268 270 273 276 278 281 284 288 291 294 297 299 301 304 305 307 309 310 312 314 316 317 318 318 318 318 319 320 321 324 327 328 328 330 332 333 333 335
240 240 238 237 241 242 241 241 241 242 243 246 247 247 247 247 246 243 240 239 239 240 241 242 242 243 242 242 242 241 239 239 240 241 243 244 247 250 254 258 260 263 265 266 267 268 270 272 273 275 277 279 282 284 287 289 292 295 296 298 301 303 305 308 309 310 311 312 313 313 314 314 313 313 314 316 319 323 323 323 324 327 327 328 332
239 244 244 240 241 243 244 243 244 244 244 244 246 247 248 251 252 252 250 246 243 242 244 246 244 244 245 245 246 246 245 245 246 247 248 249 252 254 255 258 261 264 266 267 269 272 274 276 277 279 280 281 283 285 287 289 291 294 295 296 298 300 302 305 306 306 308 309 310 310 310 310 308 307 309 311 312 314 318 319 319 322 323 324 329
240 243 248 248 245 244 244 245 244 246 246 246 246 247 248 252 254 255 254 253 251 249 248 250 250 247 246 246 247 247 247 248 249 250 251 251 254 256 258 260 261 263 266 268 270 272 274 276 278 280 281 282 285 287 288 290 291 293 293 294 295 297 299 301 302 303 305 307 307 308 309 309 307 306 306 306 307 309 314 317 315 316 319 322 325
244 242 244 250 251 247 245 246 246 247 247 247 248 248 249 252 255 257 258 256 257 256 255 255 255 254 254 254 253 252 251 250 248 250 253 255 256 256 257 259 261 263 265 267 270 273 275 276 278 279 280 282 284 285 286 287 288 289 290 291 292 294 295 296 297 300 302 303 303 305 308 309 307 306 306 306 307 309 313 314 312 314 317 320 321
242 244 242 244 250 252 249 246 246 249 251 251 251 250 250 252 255 257 258 258 258 259 259 259 258 259 261 262 263 263 264 263 260 256 256 259 262 263 263 263 264 265 267 269 271 273 275 277 278 278 279 280 281 283 284 286 288 289 291 292 294 295 296 296 296 299 301 302 302 305 308 310 309 309 309 308 307 309 311 311 311 315 317 318 318
231 239 239 238 244 251 253 253 250 249 253 256 256 255 253 252 254 256 258 259 259 258 259 260 261 261 263 265 267 269 270 272 274 272 267 265 266 269 271 273 273 272 272 271 272 274 276 278 279 279 279 280 282 283 285 287 287 288 288 291 294 296 298 299 300 304 308 307 307 308 311 312 309 308 309 307 307 310 313 312 312 315 315 315 317
230 236 237 236 239 243 248 254 256 255 254 257 260 262 260 256 255 256 257 258 258 258 258 259 261 262 263 265 267 268 270 273 275 277 277 273 271 273 274 276 276 276 276 276 276 276 277 278 278 278 281 285 285 286 287 288 286 285 286 288 291 293 296 298 301 308 312 311 310 312 316 317 312 310 310 308 308 312 314 313 313 313 314 317 318
237 242 245 246 247 248 249 251 255 259 260 261 263 265 267 264 260 259 259 259 259 259 259 259 259 260 261 262 264 265 268 270 273 276 278 277 274 272 271 273 274 275 277 277 277 277 278 279 280 280 284 287 287 287 288 287 286 284 285 286 287 289 291 294 299 305 309 310 311 311 315 319 315 313 313 309 309 313 314 312 312 313 315 317 317
236 242 247 250 252 255 258 259 259 260 261 263 266 269 270 269 266 264 264 263 262 261 262 262 261 261 261 261 261 263 265 267 270 273 277 279 278 272 266 266 269 272 275 277 278 279 278 278 279 281 283 284 284 285 286 285 286 286 287 287 287 287 289 292 297 302 305 309 311 310 313 317 314 312 311 309 309 314 314 313 312 312 313 314 312
236 239 243 246 249 250 254 259 262 262 260 260 263 267 271 271 268 265 264 263 263 263 264 265 266 267 267 266 266 265 265 265 265 267 270 274 278 277 272 265 263 264 268 272 276 280 282 281 280 281 281 282 283 284 284 283 284 285 287 287 287 288 290 293 295 297 301 306 307 306 308 310 307 307 308 308 311 315 316 317 315 312 311 310 308
242 242 242 244 246 249 251 254 256 258 259 258 258 259 262 266 268 266 262 260 262 264 267 269 271 272 273 274 273 272 270 267 265 264 264 266 270 274 276 274 270 265 263 265 268 272 276 279 282 283 284 284 283 283 283 283 284 285 286 286 288 291 292 292 293 295 297 299 300 301 302 304 306 309 309 309 310 312 314 316 315 311 309 306 303
246 246 247 246 245 247 252 254 254 254 254 255 257 258 258 260 263 264 263 261 259 261 265 269 271 273 274 274 275 275 272 270 268 266 264 264 265 267 271 274 275 272 268 267 268 267 267 268 271 273 276 277 278 279 281 282 284 286 286 288 292 295 295 295 297 298 297 297 300 301 300 302 306 307 307 307 308 308 309 312 312 309 307 303 301
247 250 252 251 250 249 252 255 256 255 254 252 253 257 259 258 259 260 262 262 260 259 260 263 267 269 271 271 272 271 270 269 269 268 267 266 265 265 267 269 271 271 271 273 275 274 272 270 267 266 266 268 271 274 277 280 282 284 286 289 293 293 294 296 299 299 297 299 303 301 297 299 301 301 302 304 305 305 305 306 305 304 305 304 301
250 254 257 258 258 258 257 258 258 258 256 252 251 254 257 259 259 258 259 259 259 259 259 261 263 264 266 267 268 269 269 269 268 268 268 268 267 267 267 267 266 266 269 273 274 274 274 274 273 271 269 268 269 271 273 276 279 282 285 289 292 292 293 295 296 295 296 301 304 300 297 299 301 300 299 297 297 299 301 302 302 304 308 308 306
Height
3229 3229 3230 3231 3232 3233 3233 3233 3233 3234 3235 3235 3236 3236 3237 3237 3237 3237 3238 3240 3240 3241 3241 3241 3242 3242 3242 3242 3242 3241 3241 3241 3241 3240 3240 3240 3240 3240 3240 3240 3240 3240 3241 3241 3241 3241 3241 3241 3241 3241 3241 3241 3241 3241 3241 3242 3242 3242 3241 3241 3241 3241 3240 3240 3239 3239 3239 3238 3237 3237 3236 3235 3234 3233 3232 3231 3230 3229 3228 3227 3226 3225 3223 3222 3221
3230 3230 3231 3232 3233 3233 3233 3234 3234 3235 3236 3237 3237 3238 3238 3239 3239 3239 3240 3241 3241 3242 3242 3242 3243 3243 3243 3243 3243 3243 3242 3242 3242 3241 3242 3242 3241 3241 3241 3241 3241 3242 3242 3242 3243 3243 3243 3243 3243 3243 3243 3243 3244 3244 3244 3244 3244 3243 3243 3243 3243 3242 3242 3241 3241 3241 3240 3239 3239 3238 3237 3236 3235 3234 3233 3232 3231 3230 3228 3227 3226 3225 3223 3222 3221
3231 3232 3234 3234 3234 3234 3234 3235 3236 3237 3237 3238 3238 3239 3239 3240 3241 3241 3241 3242 3243 3243 3243 3243 3244 3244 3244 3244 3244 3244 3244 3243 3243 3242 3243 3243 3243 3242 3242 3243 3243 3243 3244 3244 3244 3245 3245 3245 3245 3245 3245 3246 3246 3246 3246 3246 3246 3245 3245 3245 3244 3244 3243 3243 3242 3242 3241 3240 3239 3238 3237 3237 3236 3234 3233 3232 3231 3230 3229 3227 3226 3225 3223 3222 3221
3232 3233 3235 3235 3235 3235 3236 3236 3237 3238 3238 3239 3239 3240 3241 3241 3241 3242 3243 3243 3244 3244 3244 3244 3245 3246 3245 3245 3245 3245 3245 3244 3243 3243 3244 3244 3244 3244 3244 3244 3244 3245 3245 3246 3246 3246 3247 3247 3247 3248 3248 3248 3248 3248 3248 3248 3247 3247 3247 3246 3246 3245 3245 3244 3244 3243 3242 3241 3240 3239 3238 3237 3236 3235 3234 3232 3231 3230 3229 3227 3226 3225 3223 3222 3221
3232 3233 3234 3235 3235 3236 3236 3237 3238 3239 3240 3240 3241 3241 3242 3242 3243 3243 3244 3244 3244 3245 3245 3246 3246 3246 3246 3246 3246 3246 3246 3245 3245 3245 3246 3245 3246 3246 3246 3246 3246 3246 3247 3248 3248 3248 3249 3249 3250 3250 3250 3250 3250 3250 3250 3249 3249 3249 3248 3248 3247 3246 3246 3245 3245 3244 3243 3242 3241 3240 3238 3237 3236 3235 3234 3232 3231 3230 3229 3227 3226 3225 3223 3222 3220
3234 3235 3235 3235 3236 3237 3237 3238 3239 3240 3240 3241 3242 3243 3243 3243 3244 3245 3245 3245 3245 3246 3246 3246 3247 3247 3247 3247 3247 3247 3247 3246 3246 3246 3246 3246 3247 3248 3248 3247 3248 3248 3249 3249 3250 3250 3251 3251 3252 3252 3252 3252 3252 3252 3251 3251 3250 3250 3249 3249 3248 3247 3247 3246 3245 3244 3243 3242 3241 3240 3238 3237 3236 3235 3233 3232 3231 3230 3228 3227 3226 3224 3223 3222 3220
3235 3236 3236 3237 3237 3238 3239 3239 3240 3241 3241 3242 3243 3244 3244 3244 3245 3245 3246 3245 3246 3247 3247 3248 3248 3248 3248 3248 3248 3248 3248 3247 3247 3248 3248 3248 3248 3249 3249 3249 3250 3250 3251 3251 3252 3252 3253 3253 3253 3254 3254 3254 3253 3253 3253 3252 3252 3251 3250 3250 3249 3248 3247 3246 3245 3244 3243 3242 3241 3240 3238 3237 3236 3234 3233 3232 3231 3229 3228 3227 3225 3224 3223 3221 3220
3236 3236 3237 3238 3238 3239 3239 3240 3241 3242 3242 3243 3244 3244 3244 3245 3245 3246 3246 3246 3246 3247 3248 3248 3249 3249 3249 3249 3249 3249 3248 3248 3248 3249 3249 3249 3250 3250 3250 3251 3251 3252 3252 3253 3253 3254 3254 3255 3255 3255 3255 3255 3255 3254 3254 3253 3253 3252 3252 3251 3250 3249 3248 3247 3246 3244 3243 3242 3241 3240 3238 3237 3236 3234 3233 3232 3230 3229 3228 3226 3225 3224 3223 3221 3220
3237 3237 3238 3238 3239 3239 3240 3241 3242 3242 3243 3244 3244 3245 3245 3245 3245 3246 3246 3247 3247 3248 3249 3249 3249 3249 3249 3250 3250 3249 3249 3249 3249 3250 3250 3251 3251 3251 3252 3253 3253 3254 3254 3255 3255 3255 3256 3256 3257 3257 3257 3256 3256 3255 3255 3255 3254 3254 3253 3252 3251 3250 3248 3247 3246 3245 3243 3242 3241 3240 3238 3237 3236 3234 3233 3232 3230 3229 3228 3227 3225 3224 3223 3222 3220
3237 3238 3238 3239 3239 3239 3240 3241 3242 3243 3243 3244 3244 3245 3245 3246 3246 3246 3247 3248 3248 3248 3249 3249 3249 3250 3250 3250 3251 3250 3250 3250 3250 3251 3252 3252 3252 3253 3253 3255 3255 3255 3256 3256 3256 3257 3257 3258 3258 3258 3258 3258 3257 3257 3257 3256 3256 3255 3254 3253 3252 3250 3249 3247 3246 3245 3244 3242 3241 3240 3238 3237 3236 3234 3233 3232 3230 3229 3228 3227 3225 3224 3223 3222 3220
3238 3238 3239 3239 3240 3240 3240 3241 3242 3243 3243 3244 3244 3245 3246 3246 3247 3247 3248 3248 3249 3249 3249 3250 3250 3250 3251 3251 3251 3251 3251 3251 3252 3252 3253 3253 3253 3254 3255 3256 3257 3257 3258 3258 3258 3258 3259 3259 3259 3260 3259 3259 3259 3259 3258 3257 3257 3256 3255 3254 3253 3251 3250 3248 3247 3245 3244 3243 3241 3240 3238 3237 3236 3235 3233 3232 3231 3229 3228 3227 3225 3224 3223 3222 3220
3238 3238 3239 3240 3240 3240 3241 3242 3242 3243 3244 3244 3245 3246 3246 3247 3247 3248 3248 3249 3249 3250 3250 3251 3251 3251 3251 3252 3252 3252 3252 3252 3253 3253 3254 3254 3255 3256 3257 3258 3258 3259 3259 3259 3260 3260 3260 3260 3261 3261 3260 3260 3260 3260 3259 3259 3258 3257 3256 3255 3254 3252 3250 3249 3247 3246 3245 3243 3242 3240 3239 3238 3236 3235 3234 3232 3231 3230 3228 3227 3226 3224 3223 3222 3220
3238 3239 3239 3240 3240 3241 3241 3242 3243 3243 3244 3245 3245 3246 3247 3247 3248 3248 3248 3249 3250 3250 3251 3251 3251 3252 3252 3252 3253 3253 3253 3253 3253 3254 3255 3255 3256 3257 3258 3259 3260 3260 3261 3261 3261 3261 3261 3262 3262 3262 3261 3262 3262 3262 3261 3260 3259 3258 3257 3256 3255 3253 3252 3250 3249 3247 3245 3244 3242 3241 3239 3238 3237 3235 3234 3233 3231 3230 3229 3227 3226 3225 3223 3222 3220
3238 3239 3239 3240 3240 3241 3241 3242 3243 3243 3244 3245 3246 3246 3247 3248 3248 3248 3249 3249 3250 3251 3251 3252 3252 3252 3253 3253 3253 3253 3254 3254 3254 3254 3255 3257 3258 3258 3259 3260 3260 3261 3262 3262 3262 3263 3263 3262 3262 3262 3263 3263 3263 3263 3262 3261 3260 3259 3258 3257 3256 3254 3253 3251 3250 3248 3246 3245 3243 3241 3240 3238 3237 3236 3234 3233 3232 3230 3229 3227 3226 3225 3223 3222 3220
3238 3239 3239 3240 3240 3241 3241 3242 3242 3243 3244 3245 3246 3247 3247 3248 3249 3249 3249 3249 3250 3251 3252 3252 3253 3253 3253 3254 3254 3254 3254 3254 3255 3255 3256 3258 3259 3259 3260 3261 3262 3263 3263 3263 3263 3263 3263 3263 3264 3264 3265 3265 3265 3264 3263 3262 3261 3260 3259 3258 3257 3255 3254 3253 3251 3249 3247 3246 3244 3242 3241 3239 3237 3236 3235 3233 3232 3231 3229 3228 3226 3225 3224 3222 3220
3238 3239 3239 3240 3240 3241 3241 3242 3242 3243 3244 3245 3246 3247 3247 3248 3249 3249 3249 3250 3250 3251 3252 3253 3253 3253 3254 3254 3254 3254 3255 3255 3255 3256 3257 3259 3260 3260 3261 3262 3263 3264 3264 3264 3264 3264 3265 3265 3265 3266 3266 3266 3266 3265 3264 3263 3262 3261 3260 3259 3258 3257 3255 3254 3252 3251 3249 3247 3245 3243 3242 3240 3238 3237 3235 3234 3232 3231 3229 3228 3226 3225 3224 3222 3220
3237 3238 3239 3240 3240 3241 3241 3242 3242 3243 3244 3245 3246 3246 3247 3248 3249 3249 3250 3250 3251 3251 3252 3253 3253 3254 3254 3255 3255 3255 3256 3256 3256 3257 3258 3259 3261 3262 3263 3263 3264 3265 3265 3265 3265 3265 3266 3266 3267 3267 3267 3267 3266 3266 3265 3264 3263 3262 3261 3260 3259 3258 3256 3255 3253 3252 3250 3248 3246 3244 3243 3241 3239 3237 3236 3234 3233 3231 3230 3228 3227 3225 3224 3222 3221
3238 3238 3239 3240 3240 3241 3241 3242 3242 3243 3244 3245 3245 3246 3247 3248 3249 3250 3250 3251 3251 3252 3252 3253 3254 3254 3255 3255 3256 3256 3256 3257 3257 3258 3259 3260 3262 3263 3264 3264 3265 3265 3266 3266 3266 3266 3267 3267 3268 3268 3268 3267 3267 3266 3266 3264 3263 3263 3262 3261 3259 3258 3257 3256 3255 3253 3251 3249 3248 3246 3244 3242 3240 3238 3237 3235 3233 3232 3230 3229 3227 3226 3224 3223 3221
3238 3239 3239 3240 3240 3241 3241 3241 3242 3243 3243 3244 3246 3246 3247 3247 3248 3250 3250 3251 3251 3252 3252 3253 3254 3254 3255 3255 3256 3256 3257 3257 3258 3259 3259 3261 3262 3263 3264 3265 3266 3266 3266 3267 3267 3267 3267 3268 3268 3268 3268 3267 3267 3267 3266 3265 3265 3264 3263 3261 3260 3260 3259 3257 3256 3254 3252 3251 3249 3247 3245 3244 3242 3240 3238 3237 3235 3233 3231 3230 3228 3227 3225 3223 3221
3238 3239 3240 3240 3241 3241 3242 3242 3243 3243 3243 3244 3246 3246 3247 3248 3248 3250 3250 3251 3251 3252 3253 3254 3254 3255 3255 3256 3256 3257 3258 3258 3259 3260 3260 3261 3263 3263 3264 3266 3266 3266 3267 3267 3267 3268 3268 3269 3269 3269 3268 3268 3268 3268 3267 3266 3266 3265 3263 3262 3261 3260 3260 3258 3257 3255 3254 3252 3250 3248 3247 3245 3243 3242 3240 3238 3236 3234 3232 3231 3229 3227 3225 3223 3221
3238 3239 3240 3240 3241 3241 3242 3243 3243 3243 3244 3245 3245 3246 3247 3248 3248 3249 3250 3251 3252 3252 3253 3254 3254 3255 3255 3256 3257 3257 3258 3259 3259 3260 3261 3262 3263 3264 3265 3266 3266 3267 3268 3268 3268 3268 3269 3269 3269 3269 3269 3269 3269 3269 3268 3267 3266 3265 3264 3263 3262 3261 3261 3260 3258 3256 3255 3253 3251 3249 3248 3246 3244 3243 3241 3239 3237 3235 3234 3232 3229 3227 3225 3223 3221
3238 3239 3240 3240 3241 3242 3242 3243 3243 3244 3244 3245 3245 3246 3247 3248 3249 3249 3250 3251 3252 3253 3254 3254 3255 3255 3256 3256 3257 3258 3259 3259 3260 3261 3262 3263 3263 3264 3266 3267 3267 3267 3268 3269 3269 3269 3269 3269 3270 3270 3270 3270 3269 3269 3269 3268 3267 3266 3265 3264 3263 3263 3262 3261 3259 3257 3256 3254 3252 3250 3249 3247 3245 3244 3242 3240 3239 3237 3235 3232 3230 3228 3226 3224 3222
3238 3239 3240 3240 3241 3242 3243 3243 3243 3245 3245 3245 3245 3246 3247 3248 3249 3250 3250 3251 3252 3253 3254 3255 3255 3256 3256 3256 3257 3258 3259 3260 3260 3261 3262 3263 3264 3264 3265 3266 3267 3268 3269 3269 3270 3270 3270 3270 3270 3270 3270 3270 3270 3270 3269 3268 3268 3267 3265 3265 3264 3264 3263 3261 3259 3258 3257 3255 3253 3251 3250 3248 3247 3245 3243 3242 3240 3238 3236 3234 3231 3229 3227 3225 3222
3238 3239 3240 3241 3241 3242 3243 3243 3243 3244 3245 3245 3245 3246 3247 3248 3249 3250 3251 3251 3252 3253 3254 3255 3255 3256 3256 3256 3257 3258 3259 3260 3260 3261 3262 3263 3264 3264 3265 3266 3267 3268 3269 3269 3270 3270 3270 3270 3270 3270 3270 3270 3270 3270 3270 3269 3268 3267 3266 3266 3265 3265 3263 3262 3260 3259 3258 3256 3254 3253 3251 3249 3248 3246 3245 3243 3241 3239 3237 3235 3233 3230 3228 3226 3223
3238 3239 3239 3240 3241 3242 3243 3243 3244 3244 3245 3245 3245 3246 3247 3248 3249 3250 3251 3251 3252 3253 3254 3255 3255 3255 3256 3256 3257 3258 3259 3260 3260 3261 3262 3263 3264 3265 3265 3266 3267 3267 3268 3269 3269 3270 3270 3270 3270 3271 3271 3270 3270 3270 3270 3269 3269 3268 3267 3267 3266 3265 3264 3262 3261 3259 3258 3257 3255 3254 3252 3250 3249 3247 3245 3244 3242 3240 3238 3236 3234 3232 3229 3226 3224
3238 3239 3239 3240 3241 3242 3243 3243 3244 3244 3245 3245 3245 3246 3247 3248 3249 3250 3250 3251 3252 3253 3253 3254 3255 3255 3256 3257 3257 3258 3259 3260 3260 3261 3262 3263 3264 3264 3266 3266 3267 3267 3268 3268 3269 3270 3270 3270 3270 3271 3271 3270 3270 3270 3270 3269 3269 3269 3268 3267 3267 3265 3264 3262 3261 3260 3259 3258 3256 3255 3253 3251 3250 3248 3246 3245 3243 3241 3239 3237 3235 3233 3230 3227 3225
3238 3239 3239 3240 3241 3242 3243 3243 3244 3245 3245 3246 3246 3247 3247 3248 3249 3250 3250 3251 3252 3252 3253 3254 3254 3255 3256 3257 3257 3258 3259 3260 3260 3261 3262 3263 3263 3265 3265 3266 3267 3267 3268 3268 3269 3269 3270 3270 3270 3271 3271 3271 3270 3270 3270 3269 3270 3269 3269 3268 3267 3265 3264 3263 3261 3260 3259 3258 3257 3255 3254 3252 3251 3249 3247 3246 3244 3242 3240 3238 3236 3233 3231 3228 3226
3238 3238 3239 3240 3241 3242 3242 3243 3244 3245 3246 3246 3246 3247 3247 3248 3249 3249 3250 3251 3251 3252 3253 3254 3254 3255 3256 3257 3257 3258 3259 3260 3260 3261 3262 3262 3263 3264 3265 3266 3267 3267 3268 3269 3269 3269 3270 3270 3270 3270 3271 3271 3270 3270 3270 3270 3269 3269 3268 3267 3267 3266 3264 3263 3261 3261 3260 3259 3257 3256 3254 3253 3251 3249 3248 3246 3245 3243 3241 3239 3236 3234 3232 3229 3227
3237 3238 3239 3240 3241 3242 3242 3243 3244 3245 3246 3247 3247 3247 3247 3248 3249 3250 3250 3250 3251 3252 3252 3254 3254 3255 3256 3257 3257 3258 3259 3259 3260 3261 3261 3262 3263 3264 3265 3266 3266 3267 3268 3268 3269 3270 3270 3269 3269 3270 3270 3271 3270 3270 3270 3269 3269 3268 3267 3267 3266 3266 3265 3263 3262 3261 3260 3259 3257 3256 3254 3253 3251 3250 3248 3247 3245 3243 3241 3239 3237 3235 3233 3230 3228
3237 3238 3238 3239 3240 3242 3242 3243 3244 3245 3246 3247 3247 3247 3248 3248 3249 3250 3250 3250 3251 3251 3252 3253 3254 3254 3255 3256 3257 3258 3258 3259 3260 3260 3261 3262 3263 3263 3265 3265 3266 3266 3267 3268 3269 3269 3269 3269 3269 3269 3270 3270 3270 3270 3269 3269 3268 3268 3267 3266 3266 3265 3265 3264 3263 3261 3260 3259 3257 3256 3254 3253 3251 3250 3248 3247 3245 3243 3241 3239 3238 3236 3233 3231 3229
3237 3237 3238 3239 3240 3241 3242 3243 3244 3244 3245 3246 3247 3247 3248 3249 3249 3250 3250 3250 3251 3252 3252 3253 3254 3255 3256 3256 3257 3257 3258 3258 3259 3260 3261 3261 3262 3263 3264 3265 3265 3266 3267 3267 3268 3268 3269 3269 3269 3269 3269 3269 3269 3269 3269 3268 3268 3267 3267 3266 3265 3265 3264 3264 3263 3262 3260 3259 3257 3256 3254 3253 3251 3250 3248 3247 3245 3243 3242 3240 3238 3236 3234 3232 3230
3236 3237 3238 3238 3240 3241 3242 3243 3244 3244 3245 3246 3247 3247 3248 3249 3249 3250 3250 3250 3251 3252 3253 3253 3254 3255 3255 3256 3256 3257 3258 3258 3259 3259 3260 3260 3261 3262 3263 3264 3264 3265 3265 3266 3267 3267 3268 3268 3268 3268 3268 3268 3268 3268 3268 3267 3267 3266 3266 3265 3264 3263 3263 3263 3262 3261 3260 3258 3257 3255 3254 3252 3251 3249 3248 3246 3245 3243 3242 3240 3238 3236 3234 3232 3230
3236 3236 3237 3238 3239 3240 3241 3242 3243 3244 3245 3245 3246 3247 3248 3248 3249 3250 3250 3251 3251 3252 3253 3253 3254 3254 3255 3256 3256 3257 3258 3258 3258 3259 3259 3260 3261 3261 3262 3262 3263 3264 3264 3265 3265 3266 3267 3267 3267 3267 3267 3267 3267 3267 3267 3266 3266 3265 3265 3264 3263 3262 3261 3260 3261 3260 3259 3258 3256 3255 3253 3252 3250 3249 3247 3246 3245 3243 3241 3240 3238 3236 3235 3232 3230
3235 3236 3237 3238 3238 3239 3240 3241 3242 3243 3244 3245 3246 3246 3247 3248 3248 3249 3250 3251 3251 3252 3253 3253 3254 3254 3255 3255 3256 3257 3257 3258 3258 3258 3259 3259 3260 3260 3261 3261 3262 3263 3263 3264 3264 3265 3265 3265 3266 3266 3266 3266 3266 3266 3265 3265 3265 3264 3264 3263 3263 3261 3259 3258 3257 3258 3257 3256 3255 3254 3252 3251 3250 3248 3247 3246 3244 3243 3241 3240 3238 3236 3234 3233 3230
3234 3235 3236 3237 3238 3239 3240 3240 3241 3242 3244 3244 3245 3246 3247 3247 3248 3249 3249 3250 3251 3252 3252 3253 3254 3254 3255 3255 3256 3256 3257 3257 3257 3258 3258 3259 3259 3260 3260 3261 3261 3262 3262 3263 3263 3263 3264 3264 3264 3265 3265 3265 3264 3264 3264 3264 3263 3263 3262 3262 3261 3260 3259 3257 3255 3255 3255 3254 3253 3252 3251 3250 3249 3247 3246 3245 3243 3242 3240 3239 3238 3236 3234 3232 3230
3233 3234 3235 3236 3237 3238 3239 3240 3241 3242 3243 3244 3245 3245 3246 3247 3247 3248 3249 3250 3250 3251 3252 3253 3253 3254 3254 3255 3255 3256 3256 3256 3257 3257 3258 3258 3259 3259 3260 3260 3260 3261 3261 3262 3262 3262 3262 3263 3263 3263 3263 3263 3263 3262 3262 3262 3261 3261 3260 3259 3259 3258 3257 3256 3254 3253 3252 3252 3251 3250 3249 3248 3247 3246 3245 3244 3243 3241 3240 3238 3237 3235 3233 3232 3230
3232 3233 3234 3235 3236 3237 3238 3239 3240 3241 3242 3243 3244 3245 3245 3246 3246 3247 3248 3249 3250 3250 3251 3252 3252 3253 3253 3254 3254 3255 3255 3256 3256 3256 3257 3257 3258 3258 3259 3259 3259 3260 3260 3260 3261 3261 3261 3261 3261 3261 3261 3261 3261 3260 3260 3259 3259 3259 3258 3257 3256 3255 3255 3254 3252 3251 3250 3249 3248 3248 3247 3246 3245 3244 3243 3242 3241 3240 3238 3237 3236 3234 3233 3231 3229
3230 3231 3233 3234 3235 3236 3237 3238 3239 3240 3241 3242 3242 3243 3244 3245 3245 3246 3247 3248 3248 3249 3250 3251 3251 3252 3252 3253 3253 3254 3254 3255 3255 3256 3256 3256 3257 3257 3258 3258 3258 3258 3259 3259 3259 3259 3259 3259 3259 3259 3259 3259 3259 3258 3258 3257 3257 3256 3256 3255 3254 3253 3252 3251 3250 3248 3247 3247 3246 3246 3245 3244 3243 3242 3241 3240 3239 3239 3237 3236 3234 3233 3232 3230 3229
3229 3230 3231 3232 3234 3235 3236 3237 3238 3239 3240 3240 3241 3242 3243 3244 3244 3245 3245 3246 3247 3248 3248 3249 3250 3250 3251 3252 3252 3253 3253 3254 3254 3255 3255 3255 3256 3256 3256 3257 3257 3257 3257 3257 3257 3257 3257 3257 3257 3257 3257 3257 3256 3256 3256 3255 3254 3254 3253 3252 3252 3251 3250 3250 3249 3247 3245 3244 3243 3243 3243 3242 3241 3240 3239 3238 3237 3237 3236 3234 3233 3232 3231 3229 3228
3227 3228 3229 3230 3232 3233 3234 3235 3236 3237 3238 3239 3240 3240 3241 3242 3243 3243 3244 3245 3246 3246 3247 3248 3248 3249 3249 3250 3251 3251 3252 3252 3253 3253 3254 3254 3254 3255 3255 3255 3255 3255 3256 3255 3255 3255 3255 3255 3255 3255 3255 3254 3254 3254 3253 3252 3252 3251 3250 3249 3249 3248 3248 3247 3247 3246 3244 3242 3240 3239 3239 3239 3238 3237 3237 3236 3235 3234 3234 3232 3230 3230 3229 3228 3227
3225 3227 3228 3228 3229 3230 3232 3233 3234 3235 3236 3237 3238 3239 3240 3241 3241 3242 3242 3243 3244 3245 3245 3246 3247 3247 3248 3248 3249 3249 3250 3251 3251 3252 3252 3252 3253 3253 3253 3253 3253 3254 3254 3253 3253 3253 3253 3253 3253 3253 3252 3252 3252 3251 3251 3250 3249 3248 3247 3246 3246 3245 3245 3245 3244 3243 3242 3241 3239 3237 3236 3235 3234 3233 3233 3233 3232 3232 3231 3229 3228 3227 3227 3226 3225
3223 3225 3226 3226 3227 3227 3229 3230 3232 3233 3233 3234 3235 3237 3238 3239 3240 3240 3241 3241 3242 3243 3243 3244 3245 3245 3246 3247 3247 3248 3248 3248 3249 3250 3251 3251 3251 3251 3251 3251 3251 3251 3251 3251 3251 3251 3251 3250 3250 3250 3250 3249 3249 3248 3248 3247 3246 3245 3244 3243 3242 3242 3241 3241 3241 3241 3240 3238 3237 3236 3235 3233 3230 3229 3229 3229 3229 3229 3229 3227 3226 3225 3225 3224 3223
3220 3222 3223 3224 3225 3225 3226 3227 3229 3230 3231 3232 3233 3234 3236 3237 3238 3239 3239 3240 3240 3241 3241 3242 3242 3243 3244 3245 3245 3246 3246 3246 3247 3247 3248 3249 3249 3249 3249 3249 3249 3249 3249 3249 3249 3249 3248 3248 3248 3247 3247 3247 3247 3246 3245 3244 3244 3242 3242 3241 3239 3238 3238 3237 3237 3238 3237 3235 3234 3234 3234 3233 3230 3228 3226 3225 3225 3226 3226 3225 3224 3223 3223 3222 3221
3218 3219 3220 3221 3221 3222 3223 3224 3225 3227 3228 3230 3231 3232 3233 3235 3236 3237 3237 3237 3238 3238 3239 3240 3240 3241 3242 3242 3243 3243 3244 3244 3245 3245 3245 3246 3247 3247 3247 3247 3246 3246 3246 3246 3246 3246 3246 3245 3245 3244 3244 3244 3243 3243 3243 3242 3241 3240 3239 3238 3237 3236 3235 3234 3233 3234 3234 3233 3231 3230 3230 3230 3228 3226 3225 3223 3222 3223 3223 3223 3222 3221 3220 3219 3218
3218 3218 3219 3219 3220 3220 3221 3221 3222 3223 3225 3227 3228 3229 3231 3233 3234 3235 3235 3235 3236 3236 3236 3237 3238 3239 3239 3240 3240 3241 3241 3242 3242 3242 3242 3243 3244 3244 3244 3244 3244 3244 3244 3243 3243 3243 3243 3242 3242 3242 3242 3241 3240 3240 3240 3239 3237 3237 3236 3236 3235 3234 3233 3232 3231 3231 3232 3231 3229 3227 3227 3227 3225 3223 3222 3221 3220 3221 3221 3220 3220 3218 3217 3216 3215
3215 3216 3217 3217 3218 3220 3221 3221 3221 3221 3223 3224 3226 3227 3228 3230 3232 3233 3233 3233 3233 3234 3234 3234 3235 3236 3236 3237 3237 3238 3239 3239 3240 3240 3239 3239 3240 3241 3241 3241 3241 3241 3241 3240 3240 3240 3240 3239 3239 3239 3239 3239 3238 3237 3237 3236 3234 3233 3233 3232 3232 3231 3230 3229 3229 3229 3229 3229 3227 3224 3224 3224 3223 3221 3220 3218 3218 3219 3219 3218 3217 3216 3215 3214 3213
3212 3213 3214 3215 3216 3217 3219 3220 3220 3220 3221 3222 3223 3224 3225 3227 3229 3230 3231 3231 3231 3231 3231 3232 3232 3233 3233 3234 3234 3235 3236 3237 3237 3238 3238 3237 3236 3236 3237 3237 3238 3238 3238 3238 3238 3237 3237 3236 3236 3235 3236 3236 3235 3234 3234 3233 3232 3231 3230 3229 3228 3228 3227 3227 3226 3227 3227 3227 3225 3222 3221 3221 3221 3220 3218 3216 3215 3216 3216 3215 3215 3214 3213 3212 3212
3209 3210 3211 3212 3213 3214 3215 3216 3216 3217 3218 3219 3220 3220 3222 3223 3225 3226 3227 3228 3228 3229 3229 3229 3230 3230 3231 3231 3231 3232 3232 3233 3234 3235 3235 3235 3234 3233 3233 3233 3234 3234 3234 3234 3235 3235 3234 3233 3233 3232 3232 3232 3232 3231 3231 3230 3229 3228 3227 3225 3225 3225 3224 3223 3223 3224 3224 3224 3223 3221 3218 3218 3217 3217 3215 3213 3213 3213 3213 3213 3213 3212 3211 3211 3210
3206 3207 3208 3209 3210 3210 3211 3212 3212 3213 3214 3216 3218 3218 3219 3220 3221 3222 3223 3224 3225 3226 3226 3227 3227 3228 3228 3229 3229 3229 3229 3230 3231 3231 3232 3232 3231 3231 3230 3230 3230 3229 3229 3230 3230 3230 3230 3230 3230 3229 3229 3229 3228 3228 3228 3227 3226 3226 3224 3223 3223 3222 3220 3219 3219 3220 3220 3220 3221 3219 3216 3214 3214 3213 3212 3211 3210 3210 3210 3210 3210 3210 3210 3209 3208
3203 3204 3205 3205 3206 3206 3207 3207 3208 3209 3210 3213 3214 3215 3216 3217 3217 3218 3219 3220 3221 3222 3222 3223 3224 3224 3225 3225 3226 3226 3226 3227 3227 3228 3228 3228 3228 3228 3228 3227 3226 3225 3225 3226 3226 3225 3225 3225 3225 3225 3225 3225 3225 3225 3224 3224 3224 3223 3221 3220 3221 3219 3218 3217 3216 3216 3216 3217 3218 3216 3214 3213 3213 3212 3211 3209 3207 3207 3207 3208 3208 3208 3208 3207 3206
3200 3201 3202 3203 3203 3203 3204 3204 3204 3205 3206 3208 3211 3212 3213 3214 3214 3215 3215 3215 3216 3217 3218 3219 3220 3220 3220 3221 3222 3222 3222 3223 3224 3224 3224 3224 3224 3224 3224 3223 3222 3222 3222 3223 3222 3222 3221 3220 3220 3220 3220 3221 3221 3221 3221 3221 3221 3220 3219 3218 3218 3217 3215 3215 3214 3213 3213 3214 3215 3213 3211 3210 3210 3210 3209 3208 3206 3205 3204 3204 3205 3205 3205 3204 3203